Total_Precipitation_Accumulation
2.10 2.27 2.17 2.04 2.05 2.05 2.22 2.42 2.37 2.03 1.71 1.55 1.44 1.26 1.26 1.26 1.31 1.28 1.22 1.12 0.99 0.92 0.88 0.84 0.83 0.86 0.95 1.09 1.26 1.43 1.53 1.60 1.68 1.77 1.90 2.08 2.26 2.46
2.01 2.09 2.07 2.05 2.22 2.18 2.24 2.36 2.47 2.33 1.84 1.62 1.54 1.29 1.40 1.16 1.22 1.21 1.21 1.15 0.97 0.88 0.84 0.82 0.81 0.82 0.83 0.87 0.96 1.08 1.21 1.30 1.38 1.47 1.51 1.54 1.58 1.70
1.68 1.73 1.72 1.91 2.08 2.03 2.13 2.20 2.32 2.41 2.00 1.77 1.85 1.72 1.73 1.54 1.39 1.29 1.12 1.12 1.02 0.96 0.88 0.81 0.79 0.79 0.82 0.82 0.80 0.85 0.93 1.02 1.11 1.24 1.39 1.48 1.51 1.53
1.65 1.69 1.60 1.73 1.83 1.85 2.01 2.09 2.24 2.47 2.26 2.06 2.10 2.11 2.03 1.84 1.71 1.53 1.19 1.02 1.03 1.07 0.93 0.82 0.77 0.77 0.82 0.83 0.79 0.77 0.79 0.84 0.88 0.95 1.09 1.23 1.36 1.47
1.51 1.49 1.46 1.59 1.63 1.74 1.89 1.89 1.98 2.27 2.31 2.10 2.06 2.33 2.24 2.04 2.08 1.78 1.54 1.47 1.09 1.07 0.97 0.82 0.77 0.75 0.77 0.85 0.87 0.83 0.79 0.79 0.80 0.85 0.96 1.09 1.19 1.27
1.28 1.20 1.24 1.39 1.44 1.55 1.60 1.69 1.80 1.97 2.16 2.15 2.07 2.24 2.31 2.19 2.35 2.11 1.87 1.72 1.44 1.18 1.17 0.96 0.88 0.85 0.83 0.83 0.86 0.88 0.89 0.88 0.89 0.95 0.98 1.03 1.13 1.20
1.20 1.07 0.99 1.01 1.06 1.20 1.20 1.38 1.62 1.78 1.87 2.00 2.05 2.15 2.35 2.41 2.26 2.21 2.07 1.92 1.81 1.69 1.67 1.28 1.00 0.89 0.88 0.88 0.90 0.95 0.99 1.02 1.05 1.12 1.20 1.24 1.26 1.29
1.22 1.20 1.05 0.95 0.92 0.95 0.99 1.05 1.18 1.33 1.53 1.77 1.85 1.95 2.17 2.40 2.40 2.44 2.37 2.19 2.01 1.85 2.00 1.97 1.63 1.36 1.17 0.96 0.95 0.98 1.06 1.15 1.19 1.24 1.32 1.45 1.56 1.56
1.22 1.21 1.01 0.89 0.95 0.92 0.97 0.98 1.02 1.04 1.11 1.33 1.47 1.51 1.72 2.04 2.39 2.47 2.55 2.42 2.20 2.15 2.30 2.38 2.44 2.21 1.65 1.30 1.23 1.08 1.11 1.20 1.26 1.31 1.38 1.40 1.56 1.71
1.17 1.19 1.19 1.14 1.06 1.07 1.09 1.05 0.96 0.95 0.96 0.93 0.99 1.18 1.35 1.61 2.00 2.20 2.51 2.69 2.54 2.46 2.54 2.61 2.63 2.85 2.36 1.82 1.63 1.39 1.31 1.33 1.38 1.40 1.43 1.50 1.56 1.64
1.19 1.19 1.17 1.12 1.13 1.09 1.10 1.11 1.01 0.94 0.92 0.91 0.88 0.99 1.18 1.32 1.61 1.96 2.24 2.43 2.52 2.60 2.67 2.73 2.65 2.80 3.09 2.64 1.95 1.59 1.37 1.30 1.34 1.39 1.43 1.54 1.61 1.59
1.27 1.26 1.14 1.02 1.08 1.03 0.94 1.01 1.00 1.00 1.05 1.01 1.00 1.02 1.08 1.24 1.49 1.76 2.01 2.26 2.31 2.39 2.26 2.25 2.26 2.40 2.83 3.03 2.67 2.06 1.60 1.43 1.33 1.30 1.33 1.45 1.57 1.44
1.26 1.27 1.21 1.08 0.91 0.87 0.86 0.89 0.95 1.04 1.14 1.16 1.18 1.21 1.29 1.32 1.37 1.56 1.83 2.08 2.16 1.97 1.75 1.87 2.03 2.14 2.22 2.40 2.57 2.53 2.16 1.82 1.60 1.45 1.38 1.36 1.41 1.38
1.46 1.43 1.38 1.23 1.04 0.92 0.83 0.87 0.95 0.95 1.03 1.13 1.12 1.11 1.17 1.22 1.27 1.43 1.63 1.78 1.88 1.88 1.82 1.92 2.06 2.10 2.17 2.19 2.24 2.31 2.35 2.18 1.99 1.85 1.76 1.74 1.57 1.50
1.61 1.62 1.52 1.30 1.11 0.95 0.88 0.89 0.90 0.90 0.96 1.03 0.99 0.95 1.00 1.08 1.16 1.32 1.49 1.66 1.72 1.67 1.68 1.79 1.89 1.92 2.03 2.10 2.05 1.97 2.03 2.12 2.11 2.08 2.08 2.06 1.92 1.76
1.62 1.56 1.49 1.38 1.21 1.12 1.07 0.99 0.92 0.98 1.01 1.00 1.02 1.01 1.07 1.17 1.26 1.31 1.43 1.58 1.75 1.71 1.66 1.70 1.75 1.86 1.84 1.71 1.65 1.52 1.52 1.63 1.79 1.94 2.13 2.31 2.34 2.26
1.74 1.61 1.54 1.43 1.32 1.27 1.23 1.15 1.08 1.07 1.05 1.04 1.07 1.07 1.06 1.12 1.19 1.23 1.33 1.39 1.46 1.49 1.52 1.58 1.70 1.83 1.83 1.74 1.62 1.45 1.40 1.34 1.39 1.68 1.99 2.23 2.25 2.11
1.46 1.45 1.46 1.43 1.36 1.31 1.27 1.20 1.15 1.11 1.10 1.10 1.10 1.08 1.04 1.04 1.12 1.24 1.34 1.34 1.29 1.29 1.36 1.41 1.62 1.82 1.86 1.70 1.41 1.30 1.29 1.26 1.26 1.45 1.63 1.71 1.71 1.61
1.23 1.30 1.28 1.27 1.26 1.26 1.24 1.18 1.13 1.11 1.15 1.16 1.11 1.10 1.09 1.10 1.13 1.22 1.32 1.35 1.29 1.27 1.36 1.50 1.63 1.74 1.71 1.52 1.32 1.10 1.11 1.14 1.26 1.42 1.50 1.48 1.37 1.25
1.15 1.20 1.21 1.22 1.24 1.26 1.27 1.22 1.20 1.21 1.24 1.24 1.22 1.21 1.22 1.23 1.24 1.25 1.32 1.37 1.33 1.31 1.38 1.49 1.53 1.56 1.55 1.44 1.35 1.21 1.02 1.08 1.14 1.24 1.33 1.36 1.26 1.12
1.25 1.29 1.29 1.28 1.30 1.34 1.34 1.30 1.29 1.26 1.23 1.26 1.26 1.24 1.22 1.23 1.27 1.28 1.34 1.40 1.37 1.33 1.30 1.30 1.37 1.47 1.60 1.76 1.65 1.43 1.26 1.12 1.13 1.15 1.23 1.35 1.36 1.30
1.20 1.26 1.27 1.26 1.29 1.33 1.30 1.27 1.28 1.25 1.22 1.21 1.20 1.21 1.22 1.19 1.21 1.26 1.30 1.32 1.29 1.25 1.22 1.24 1.39 1.57 1.65 1.69 1.60 1.47 1.42 1.36 1.29 1.24 1.18 1.12 1.14 1.16
1.18 1.21 1.18 1.15 1.17 1.18 1.13 1.12 1.17 1.21 1.22 1.22 1.19 1.17 1.16 1.14 1.12 1.18 1.24 1.28 1.30 1.31 1.33 1.38 1.43 1.51 1.55 1.57 1.61 1.56 1.46 1.43 1.43 1.42 1.33 1.14 0.87 0.77